[[{"header":{"parameterUnit":"m.s-1","parameterCategory":1,"la1":30.2991,"la2":30.254,"lo1":-89.0895,"lo2":-89.0444,"dy":0.0017,"dx":0.0017,"nx":28,"ny":28,"refTime":"2024-03-19T09:00:00:Z","depth":0,"parameterNumber":2,"parameterNumberName":"U-component_of_WINDS"},"data":[0,0,0,0,0,0,0,0,0,0,0,0,0,0,0,0,0,0,0,0,0,0,0,0,0,0,0,0,0,0,0,0,0,0,0,0,0,0,0,0,0,0,0,0,0,0,0,0,0,0,0,0,0,0,0,0,0,0,2.0051,2.0052,0,2.0141,2.0142,2.0143,2.0146,2.0145,2.0144,2.0143,2.0233,2.0236,2.024,0,0,0,0,0,0,0,0,0,0,0,0,0,1.9881,1.9884,2.0051,2.0052,2.0054,2.014,2.0142,2.0143,2.0147,2.0145,2.0144,2.0143,2.0232,2.0236,2.024,0,0,0,0,0,0,0,0,0,0,0,0,0,1.9961,1.9885,2.0051,2.0066,2.0068,2.014,2.0142,2.0143,2.0147,2.0145,2.0144,2.0142,2.0231,2.0235,2.024,2.0303,0,0,2.0256,2.0258,0,0,0,0,0,0,0,0,1.9956,1.9967,2.0063,2.0065,2.0068,2.0131,2.0114,2.0197,2.0147,2.0117,2.0143,2.0142,2.02,2.0208,2.0228,2.0307,2.0311,2.0256,2.0259,2.0262,2.0263,0,0,0,0,0,0,0,1.9951,1.9963,2.0087,2.0064,2.0067,2.0067,2.0077,2.013,2.0166,2.012,2.012,2.0131,2.0201,2.0223,2.023,2.0313,2.0256,2.0261,2.0264,2.0266,2.0445,2.0447,0,0,0,0,0,0,1.9943,1.9959,2.0084,2.0089,2.0007,2.0071,2.0082,2.0112,2.0166,2.0172,2.0132,2.013,2.0215,2.0224,2.0233,2.0308,2.0261,2.0266,2.0269,2.0443,2.0445,2.0447,0,0,0,0,0,0,1.9939,1.9954,2.008,2.0024,2.004,2.0076,2.011,2.0115,2.0136,2.0175,2.0181,2.0148,2.0214,2.0226,2.0285,2.0311,2.0268,2.0273,2.0441,2.0444,2.0446,2.0459,0,0,0,0,0,0,1.9934,1.9953,1.9978,2.0025,2.0043,2.0132,2.0111,2.0118,2.0145,2.0144,2.0191,2.0198,2.0214,2.0278,2.029,2.0317,2.0277,2.0439,2.0442,2.0445,2.0457,2.0462,2.0467,0,0,0,0,0,1.9928,1.9978,1.9979,1.9994,2.0076,2.0133,2.0144,2.0162,2.0148,2.0172,2.0197,2.0196,2.0307,2.0284,2.0298,2.0327,2.0437,2.0441,2.0445,2.0455,2.0461,2.0467,0,0,0,0,0,0,1.9933,1.9985,1.9986,2.0053,2.0089,2.0134,2.0166,2.0169,2.0209,2.0206,2.0226,2.0237,2.0295,2.0317,2.0291,2.0389,2.037,2.0377,2.0372,2.0379,2.0384,2.0377,2.0281,0,0,0,0,0,1.9942,1.9986,2.0028,2.0083,2.0101,2.013,2.0156,2.0167,2.0204,2.0219,2.0248,2.0284,2.0326,2.0354,2.0396,2.046,2.0469,2.0487,2.0492,2.0496,2.0501,2.0534,2.0542,2.046,2.046,2.046,0,0,1.9961,1.9994,2.0021,2.0085,2.0114,2.0157,2.0143,2.019,2.0222,2.0226,2.0284,2.0306,2.0347,2.0408,2.0437,2.0429,2.0526,2.0501,2.0504,2.0507,2.0539,2.0547,2.0554,2.0463,2.0462,2.0462,0,0,2.0017,2.0048,2.0095,2.0124,2.0168,2.0187,2.0199,2.0243,2.0258,2.0316,2.032,2.0357,2.0431,2.0459,2.0483,2.0548,2.0548,2.0561,2.0586,2.0618,2.0625,2.063,2.0651,2.0659,2.0566,2.0566,2.0566,0,2.0035,2.0101,2.012,2.0166,2.0193,2.0199,2.0246,2.0274,2.0329,2.0346,2.0336,2.0427,2.0456,2.0522,2.0538,2.0558,2.057,2.0555,2.0622,2.0628,2.0634,2.0654,2.0662,2.0567,2.0567,2.0567,2.0567,0,2.0119,2.0165,2.0198,2.025,2.0281,2.0328,2.0352,2.0381,2.0389,2.0408,2.0465,2.05,2.0547,2.0564,2.0572,2.0631,2.0624,2.0618,2.0599,2.0643,2.0662,2.067,2.0569,2.0568,2.0568,2.0568,0,0,2.0181,2.0242,2.0254,2.0277,2.0325,2.036,2.0406,2.0452,2.0475,2.0513,2.055,2.0612,2.0605,2.0633,2.0644,2.0672,2.0718,2.0662,2.0664,2.067,2.0783,2.0786,2.0795,2.0719,2.0721,2.0722,2.0779,0,2.0241,2.0324,2.0341,2.0412,2.0452,2.0458,2.0498,2.0531,2.055,2.0586,2.0607,2.0649,2.0639,2.0655,2.0684,2.0707,2.0741,2.0703,2.0753,2.0754,2.0741,2.0805,2.0809,2.0861,2.0787,2.0788,2.0789,0,2.0322,2.036,2.0435,2.0475,2.0493,2.0529,2.0571,2.0607,2.0643,2.0655,2.0685,2.0692,2.0739,2.0718,2.0781,2.0755,2.0776,2.079,2.0792,2.0797,2.0773,2.0809,2.0879,2.0886,2.0801,2.08,2.0799,0,2.0357,2.0428,2.0481,2.0501,2.055,2.0574,2.0595,2.063,2.0656,2.0693,2.071,2.0752,2.0774,2.0806,2.0824,2.0808,2.0885,2.0867,2.0894,2.0893,2.0909,2.0908,2.0981,2.0926,2.0925,2.0925,2.0925,0,2.0421,2.0466,2.0497,2.053,2.0579,2.0598,2.0646,2.0668,2.0698,2.0734,2.0742,2.0775,2.0797,2.0833,2.0848,2.0896,2.0907,2.0916,2.0919,2.0915,2.0913,2.0928,2.0924,2.0927,2.0927,2.0927,2.0926,0,2.0468,2.0491,2.0549,2.059,2.0602,2.0636,2.0671,2.0702,2.072,2.0765,2.0777,2.0806,2.0848,2.0869,2.0922,2.0932,2.0986,2.0988,2.0973,2.0974,2.1,2.0996,2.1084,2.1095,2.1034,2.1035,2.1035,0,2.0507,2.0542,2.0586,2.061,2.0632,2.0672,2.0698,2.0717,2.0744,2.0787,2.0812,2.0855,2.089,2.0957,2.0982,2.1022,2.1023,2.1051,2.1029,2.1023,2.1021,2.1018,2.1021,2.1054,2.1055,2.1056,2.1056,0,2.0572,2.0581,2.0619,2.066,2.0691,2.0724,2.0757,2.0776,2.0801,2.083,2.0873,2.09,2.0954,2.0995,2.1036,2.1057,2.106,2.1063,2.1071,2.1066,2.1055,2.1059,2.0982,2.106,2.106,2.106,2.1059,2.1059,2.0615,2.0645,2.068,2.0721,2.0748,2.0778,2.0808,2.083,2.0867,2.0911,2.0921,2.0966,2.0999,2.1055,2.1077,2.1111,2.1105,2.1118,2.112,2.1123,2.1123,2.1051,2.1119,2.1119,2.1119,2.1119,2.1119,0,2.0679,2.0702,2.0739,2.0784,2.0816,2.0816,2.0852,2.0878,2.0918,2.0949,2.0983,2.1031,2.1071,2.1099,2.1139,2.1161,2.1163,2.1171,2.1169,2.1173,2.1127,2.1115,2.1168,2.1168,2.1168,2.1168,2.1168,2.1168,2.0716,2.0766,2.0779,2.0841,2.0863,2.0907,2.0927,2.0954,2.0979,2.1033,2.1066,2.1084,2.1113,2.1155,2.1191,2.1198,2.1211,2.1218,2.1225,2.1182,2.1176,2.1171,2.116,2.1222,2.1222,2.1267,2.1268,2.1268]},{"header":{"parameterUnit":"m.s-1","parameterCategory":1,"la1":30.2991,"la2":30.254,"lo1":-89.0895,"lo2":-89.0444,"dy":0.0017,"dx":0.0017,"nx":28,"ny":28,"refTime":"2024-03-19T09:00:00:Z","depth":0,"parameterNumber":3,"parameterNumberName":"V-component_of_WINDS"},"data":[0,0,0,0,0,0,0,0,0,0,0,0,0,0,0,0,0,0,0,0,0,0,0,0,0,0,0,0,0,0,0,0,0,0,0,0,0,0,0,0,0,0,0,0,0,0,0,0,0,0,0,0,0,0,0,0,0,0,-0.888,-0.888,0,-0.8935,-0.8936,-0.8937,-0.8972,-0.8972,-0.8973,-0.8973,-0.9029,-0.903,-0.9031,0,0,0,0,0,0,0,0,0,0,0,0,0,-0.8803,-0.8805,-0.888,-0.888,-0.8881,-0.8935,-0.8936,-0.8937,-0.8972,-0.8972,-0.8973,-0.8973,-0.9028,-0.903,-0.9032,0,0,0,0,0,0,0,0,0,0,0,0,0,-0.8845,-0.8805,-0.888,-0.8905,-0.8908,-0.8935,-0.8936,-0.8937,-0.8972,-0.8972,-0.8973,-0.8973,-0.9028,-0.903,-0.9032,-0.9037,0,0,-0.9038,-0.9039,0,0,0,0,0,0,0,0,-0.8843,-0.8848,-0.8901,-0.8904,-0.8907,-0.8947,-0.893,-0.8971,-0.8972,-0.8948,-0.8973,-0.8973,-0.9001,-0.9006,-0.9015,-0.904,-0.9042,-0.9038,-0.9039,-0.904,-0.904,0,0,0,0,0,0,0,-0.884,-0.8846,-0.8902,-0.8901,-0.8905,-0.8914,-0.892,-0.8938,-0.8972,-0.895,-0.8953,-0.8959,-0.9003,-0.9013,-0.9017,-0.9043,-0.9038,-0.904,-0.9041,-0.9041,-0.9076,-0.9075,0,0,0,0,0,0,-0.8833,-0.8843,-0.89,-0.8903,-0.8875,-0.8915,-0.8922,-0.8934,-0.8972,-0.8978,-0.8958,-0.896,-0.901,-0.9015,-0.9019,-0.9028,-0.904,-0.9042,-0.9043,-0.9076,-0.9076,-0.9075,0,0,0,0,0,0,-0.8831,-0.8838,-0.8898,-0.8874,-0.8882,-0.8916,-0.8929,-0.8935,-0.8945,-0.8978,-0.8985,-0.8963,-0.901,-0.9016,-0.9033,-0.9031,-0.9043,-0.9044,-0.9076,-0.9076,-0.9075,-0.9046,0,0,0,0,0,0,-0.8829,-0.8837,-0.884,-0.8874,-0.8884,-0.891,-0.8929,-0.8936,-0.8948,-0.8951,-0.8984,-0.899,-0.9011,-0.903,-0.9035,-0.9033,-0.9046,-0.9077,-0.9076,-0.9076,-0.9047,-0.9045,-0.9043,0,0,0,0,0,-0.8826,-0.8829,-0.884,-0.8846,-0.8887,-0.891,-0.8916,-0.894,-0.8948,-0.8951,-0.8972,-0.8989,-0.903,-0.9031,-0.9037,-0.9036,-0.9077,-0.9076,-0.9076,-0.9049,-0.9045,-0.9043,0,0,0,0,0,0,-0.8793,-0.8834,-0.8846,-0.886,-0.8881,-0.8916,-0.892,-0.8936,-0.8956,-0.8957,-0.8987,-0.8994,-0.9008,-0.9024,-0.9024,-0.9044,-0.9055,-0.9056,-0.9033,-0.903,-0.9028,-0.9023,-0.9047,0,0,0,0,0,-0.8787,-0.8803,-0.8838,-0.8846,-0.8857,-0.8887,-0.8897,-0.8915,-0.8938,-0.8947,-0.897,-0.8992,-0.901,-0.9021,-0.9039,-0.905,-0.9058,-0.9053,-0.905,-0.9048,-0.9048,-0.9055,-0.9053,-0.9073,-0.9073,-0.9073,0,0,-0.8776,-0.88,-0.8808,-0.884,-0.8859,-0.8874,-0.8894,-0.8909,-0.892,-0.8949,-0.8966,-0.8984,-0.901,-0.9024,-0.9031,-0.9038,-0.9044,-0.9047,-0.9045,-0.9047,-0.9055,-0.9053,-0.9051,-0.9073,-0.9073,-0.9073,0,0,-0.8762,-0.8782,-0.8792,-0.881,-0.8838,-0.8858,-0.8861,-0.8893,-0.8906,-0.8924,-0.8946,-0.896,-0.899,-0.9008,-0.9021,-0.9015,-0.903,-0.902,-0.9007,-0.9013,-0.9012,-0.9011,-0.9008,-0.9007,-0.902,-0.902,-0.902,0,-0.8744,-0.8768,-0.8794,-0.8808,-0.8822,-0.885,-0.8859,-0.8876,-0.8908,-0.8917,-0.8924,-0.8963,-0.8983,-0.9001,-0.9,-0.9009,-0.9013,-0.9016,-0.901,-0.9009,-0.9008,-0.9006,-0.9005,-0.9018,-0.9018,-0.9019,-0.9019,0,-0.8744,-0.876,-0.8764,-0.8796,-0.881,-0.8822,-0.885,-0.8861,-0.8877,-0.8897,-0.8914,-0.8939,-0.8963,-0.8969,-0.8984,-0.8989,-0.8993,-0.9004,-0.9016,-0.9004,-0.9003,-0.9003,-0.9016,-0.9017,-0.9017,-0.9017,0,0,-0.871,-0.8756,-0.8758,-0.8772,-0.8806,-0.8818,-0.8832,-0.8855,-0.8864,-0.8886,-0.8898,-0.8923,-0.8934,-0.8949,-0.8967,-0.8973,-0.8966,-0.8984,-0.8985,-0.898,-0.8974,-0.8964,-0.8963,-0.8977,-0.8977,-0.8977,-0.8971,0,-0.8701,-0.8726,-0.8751,-0.8767,-0.8783,-0.8809,-0.8821,-0.8842,-0.8861,-0.8876,-0.8897,-0.8914,-0.8928,-0.8937,-0.8944,-0.8966,-0.8965,-0.8967,-0.8988,-0.8989,-0.898,-0.8962,-0.8952,-0.8945,-0.8971,-0.8971,-0.8971,0,-0.8694,-0.8715,-0.8733,-0.8765,-0.8772,-0.8782,-0.8806,-0.8821,-0.8846,-0.8859,-0.8876,-0.8895,-0.891,-0.8921,-0.8942,-0.8942,-0.8953,-0.8965,-0.8965,-0.8968,-0.8979,-0.8964,-0.8944,-0.8943,-0.897,-0.897,-0.897,0,-0.8667,-0.87,-0.8715,-0.8727,-0.8765,-0.8771,-0.8787,-0.8813,-0.8825,-0.8846,-0.8855,-0.8877,-0.8889,-0.8906,-0.8931,-0.8936,-0.8949,-0.8962,-0.8961,-0.896,-0.8962,-0.8961,-0.8943,-0.8969,-0.8969,-0.8969,-0.8969,0,-0.8655,-0.8665,-0.8704,-0.8713,-0.8725,-0.8753,-0.8764,-0.8782,-0.8805,-0.8818,-0.8842,-0.8854,-0.8886,-0.8902,-0.8922,-0.8936,-0.8941,-0.8952,-0.8957,-0.895,-0.8948,-0.8957,-0.8958,-0.8969,-0.8969,-0.8969,-0.8969,0,-0.8627,-0.8653,-0.8671,-0.8706,-0.8715,-0.8722,-0.8752,-0.8762,-0.8782,-0.8798,-0.8804,-0.8835,-0.8855,-0.8881,-0.8909,-0.8922,-0.8934,-0.8942,-0.8926,-0.8929,-0.8926,-0.8925,-0.8911,-0.8911,-0.8937,-0.8937,-0.8937,0,-0.8617,-0.8625,-0.8661,-0.8671,-0.8687,-0.8704,-0.8717,-0.8746,-0.8759,-0.8788,-0.8794,-0.8816,-0.8835,-0.8865,-0.889,-0.8912,-0.892,-0.8914,-0.8924,-0.8916,-0.892,-0.8919,-0.892,-0.8911,-0.8911,-0.8911,-0.891,0,-0.8596,-0.8609,-0.8627,-0.865,-0.8666,-0.8685,-0.8706,-0.8713,-0.8746,-0.8759,-0.878,-0.8795,-0.8823,-0.8844,-0.8869,-0.8886,-0.8903,-0.8907,-0.8908,-0.89,-0.889,-0.8895,-0.8919,-0.8907,-0.8907,-0.8908,-0.8908,-0.8908,-0.8577,-0.8585,-0.8612,-0.8632,-0.865,-0.8669,-0.868,-0.8702,-0.872,-0.8745,-0.8761,-0.8781,-0.8807,-0.8842,-0.8858,-0.8874,-0.8881,-0.8882,-0.8882,-0.8882,-0.8879,-0.8888,-0.8878,-0.8879,-0.8879,-0.8879,-0.8879,0,-0.8557,-0.8576,-0.8594,-0.8622,-0.8637,-0.8653,-0.8677,-0.8689,-0.8706,-0.8728,-0.8747,-0.877,-0.8791,-0.8818,-0.8841,-0.8849,-0.8857,-0.8853,-0.8853,-0.8857,-0.8872,-0.8869,-0.8846,-0.8846,-0.8846,-0.8846,-0.8846,-0.8846,-0.8548,-0.8564,-0.858,-0.8605,-0.8624,-0.8644,-0.8656,-0.8673,-0.8691,-0.8717,-0.8734,-0.8752,-0.8776,-0.8801,-0.8821,-0.8828,-0.8835,-0.8829,-0.8839,-0.8853,-0.8855,-0.8858,-0.8856,-0.8831,-0.8831,-0.8823,-0.8823,-0.8823]}]]